Tracking 19709 objects as of 18-Jun-2019
HD Live streaming from Space Station
objects crossing your sky now

TITAN 3C TRANSTAGE DEB

Track TITAN 3C TRANSTAGE DEB now!


NORAD ID: 34172
Int'l Code: 1965-108DF
Perigee: 811.9 km
Apogee: 30,495.4 km
Inclination: 26.9 °
Period: 542.2 minutes
Semi major axis: 22024 km
RCS: 0.0224 m2 (small)
Launch date: December 21, 1965
Source: United States (US)
Launch site: AIR FORCE EASTERN TEST RANGE (AFETR)

Note: This is SATELLITE DEBRIS
aabbcc
Your satellite tracking list
Your tracking list is empty




NASA's NSSDC Master Catalog

Two Line Element Set (TLE):
1 34172U 65108DF  19144.23539289 -.00000169  00000-0  38331-3 0  9995
2 34172  26.8608 348.2692 6738702 258.0973 347.2922  2.65606993126071
Source of the keplerian elements: AFSPC